Weather History for Medicine Lodge, KS

Change the Weather History Date:

Tuesday, November 8, 2011

  Actual Average Record
Temperature  
Mean Temperature 41 °F 49 °F  
Max Temperature 46 °F 62 °F 91 °F (2006)
Min Temperature 36 °F 36 °F 18 °F (1991)
Degree Days  
Heating Degree Days 24 16  
Month to date heating degree days 116  
Since 1 July heating degree days 385  
Cooling Degree Days 0 0  
Month to date cooling degree days 0  
Year to date cooling degree days 1769  
Moisture  
Dew Point 40 °F    
Average Humidity 91    
Maximum Humidity 97    
Minimum Humidity 85    
Precipitation  
Precipitation 0.37 in 0.04 in 1.82 in (1981)
Month to date precipitation 0.41  
Year to date precipitation 25.70  
Snow  
Snow 0.00 in 0.00 in - ()
Month to date snowfall 0.0  
Since 1 July snowfall 0.0  
Since 1 September snowfall 0.0  
Snow Depth -    
Sea Level Pressure  
Sea Level Pressure 29.97 in    
Wind  
Wind Speed 15 mph (North)    
Max Wind Speed 22 mph    
Max Gust Speed 32 mph    
T = Trace of Precipitation, MM = Missing Value Source: NWS Daily Summary

Daily Weather History Graph

Daily Weather History Graph

Search for Another Location

Airport:

Trip Planner

Search our weather history database for the weather conditions in past years. The results will help you decide how hot, cold, wet, or windy it might be!

Date:

Astronomy

Nov. 08, 2011 Rise Set
Actual Time 7:05 AM CST 5:29 PM CST
Civil Twilight 6:38 AM CST 5:57 PM CST
Nautical Twilight 6:07 AM CST 6:28 PM CST
Astronomical Twilight 5:36 AM CST 6:58 PM CST
Moon 4:09 PM CST (11/8) 5:07 AM CST (11/8)
Length of Visible Light 11h 18m
Length of Day
10h 23m
Waxing Gibbous, 96% of the Moon is Illuminated
Nov 8
Waxing Gibbous
Nov 10
Full
Nov 18
Last Quarter
Nov 25
New
Dec 2
First Quarter

Hourly Weather History & Observations

Time (CST) Temp. Windchill Dew Point Humidity Pressure Visibility Wind Dir Wind Speed Gust Speed Precip Events Conditions
12:56 AM 45.0 °F 38.5 °F 43.0 °F 93% 29.90 in - North 13.8 mph 23.0 mph N/A   Unknown
1:56 AM 44.1 °F 36.5 °F 42.1 °F 93% 29.91 in - North 17.3 mph 25.3 mph N/A   Unknown
2:56 AM 44.1 °F 37.1 °F 42.1 °F 93% 29.91 in - North 15.0 mph 24.2 mph N/A   Unknown
3:56 AM 44.1 °F 36.5 °F 42.1 °F 93% 29.87 in - North 17.3 mph 25.3 mph N/A   Unknown
4:56 AM 44.1 °F 37.7 °F 42.1 °F 93% 29.91 in - NNE 12.7 mph - N/A   Unknown
5:56 AM 44.1 °F 37.4 °F 42.1 °F 93% 29.91 in - North 13.8 mph - N/A   Unknown
6:56 AM 44.1 °F 36.8 °F 41.0 °F 89% 29.91 in - NNE 16.1 mph 21.9 mph N/A   Unknown
7:56 AM 43.0 °F 35.4 °F 41.0 °F 93% 29.93 in - North 16.1 mph 23.0 mph N/A   Unknown
8:56 AM 43.0 °F 37.2 °F 42.1 °F 97% 29.94 in - North 10.4 mph 18.4 mph 0.07 in   Unknown
9:56 AM 45.0 °F 38.2 °F 43.0 °F 93% 29.91 in - NNE 15.0 mph 26.5 mph 0.20 in   Unknown
10:56 AM 46.9 °F - 43.0 °F 86% 29.88 in - NNE 18.4 mph 32.2 mph N/A   Unknown
11:56 AM 46.0 °F 40.2 °F 42.1 °F 86% 29.91 in - NNE 12.7 mph - N/A   Unknown
12:56 PM 45.0 °F 38.5 °F 43.0 °F 93% 29.89 in - North 13.8 mph 21.9 mph 0.01 in   Unknown
1:56 PM 44.1 °F 39.0 °F 43.0 °F 96% 29.94 in - NNW 9.2 mph - 0.02 in   Unknown
2:56 PM 46.0 °F 38.8 °F 43.0 °F 89% 29.91 in - NNW 18.4 mph 27.6 mph 0.05 in   Unknown
3:56 PM 45.0 °F 37.4 °F 41.0 °F 86% 29.91 in - NNW 18.4 mph 26.5 mph N/A   Unknown
4:56 PM 42.1 °F 32.8 °F 37.9 °F 85% 29.95 in - North 21.9 mph 28.8 mph N/A   Unknown
5:56 PM 39.9 °F 31.1 °F 36.0 °F 86% 30.00 in - NNW 17.3 mph 25.3 mph N/A   Unknown
6:56 PM 37.9 °F 29.2 °F 35.1 °F 89% 30.05 in - NNW 15.0 mph 24.2 mph N/A   Unknown
7:56 PM 37.9 °F 27.9 °F 35.1 °F 89% 30.13 in - North 19.6 mph 27.6 mph 0.01 in   Unknown
8:56 PM 36.0 °F 25.0 °F 34.0 °F 93% 30.14 in - North 20.7 mph 32.2 mph 0.01 in   Unknown
9:56 PM 37.0 °F 27.7 °F 35.1 °F 93% 30.14 in - NNW 16.1 mph 21.9 mph N/A   Unknown
10:56 PM 37.0 °F 29.3 °F 35.1 °F 93% 30.16 in - NNW 11.5 mph - N/A   Unknown
11:56 PM 37.0 °F 31.6 °F 34.0 °F 89% 30.22 in - NW 6.9 mph - N/A   Unknown